This is the latest recevied weather packets stored in our database for station/object N9BID. If no packets are shown the sender has not sent any weather packets the latest 1 day(s).
| Time | Temp. | Humidity | Pressure | Rain* | Wind** | Luminosity | Snow |
|---|---|---|---|---|---|---|---|
| 1778069155 | 1.11° C | 78% | 1005.7 hPa | 0 mm | - | 38 W/m² | - |
| 1778068248 | 0.56° C | 81% | 1005.5 hPa | 0 mm | - | 31 W/m² | - |
| 1778067945 | 0° C | 82% | 1005.2 hPa | 0 mm | - | 28 W/m² | - |
| 1778067341 | 0° C | 84% | 1005.1 hPa | 0 mm | - | 23 W/m² | - |
| 1778067038 | 0° C | 84% | 1005.1 hPa | 0 mm | - | 21 W/m² | - |
| 1778064615 | 0° C | 83% | 1004.7 hPa | 0 mm | - | 3 W/m² | - |
| 1778064313 | 0.56° C | 83% | 1004.6 hPa | 0 mm | - | 2 W/m² | - |
| 1778063404 | 0.56° C | 82% | 1004.7 hPa | 0 mm | - | 0 W/m² | - |
| 1778062193 | 0.56° C | 83% | 1004.3 hPa | 0 mm | - | 0 W/m² | - |
| 1778060983 | 1.67° C | 80% | 1004.3 hPa | 0 mm | - | 0 W/m² | - |
| 1778060379 | 1.67° C | 79% | 1004.3 hPa | 0 mm | - | 0 W/m² | - |
| 1778060077 | 1.67° C | 81% | 1004.4 hPa | 0 mm | - | 0 W/m² | - |
| 1778059774 | 1.67° C | 82% | 1004.4 hPa | 0 mm | - | 0 W/m² | - |
| 1778058867 | 2.22° C | 81% | 1004.3 hPa | 0 mm | - | 0 W/m² | - |
| 1778057958 | 2.22° C | 81% | 1003.9 hPa | 0 mm | - | 0 W/m² | - |
| 1778056744 | 2.22° C | 80% | 1004.2 hPa | 0 mm | - | 0 W/m² | - |
| 1778055835 | 2.22° C | 82% | 1003.9 hPa | 0 mm | - | 0 W/m² | - |
| 1778055531 | 2.22° C | 82% | 1003.9 hPa | 0 mm | - | 0 W/m² | - |
| 1778054927 | 2.22° C | 84% | 1004 hPa | 0 mm | - | 0 W/m² | - |
| 1778053110 | 2.22° C | 80% | 1003.6 hPa | 0 mm | - | 0 W/m² | - |
| 1778052504 | 2.22° C | 80% | 1003.7 hPa | 0 mm | - | 0 W/m² | - |
| 1778052202 | 2.22° C | 78% | 1003.7 hPa | 0 mm | - | 0 W/m² | - |
| 1778051597 | 2.22° C | 82% | 1003.6 hPa | 0 mm | - | 0 W/m² | - |
| 1778051294 | 2.22° C | 81% | 1003.8 hPa | 0 mm | - | 0 W/m² | - |
| 1778050991 | 2.22° C | 82% | 1003.6 hPa | 0 mm | - | 0 W/m² | - |
* Rain latest hour (hover to see other rain measurements)
** Current wind speed in m/s (hover to see current wind gust speed)